Torna al catalogo

STARLINK-4328

AttivoComunicazioniSSO
NORAD 53071·PAYLOAD·🇺🇸 United States

Lanciato Jul 11, 2022 da Vandenberg Space Force Base

Loading…

Prossimi Passaggi (prossime 24 ore)

TLE

AggiornatoSource: CelesTrak SupGP

Epoca: Sep 14, 2026, 20:58 UTC

1 53071C 22077AE  26257.87409722  .00065413  00000+0  20312-2 0  2570
2 53071  97.2854  73.7071 0001710  93.7944 229.4600 15.33395499    18

Traccia STARLINK-4328 in tempo reale con AllMySat

Download on the App Store